[[{"header":{"parameterUnit":"m.s-1","parameterCategory":1,"la1":30.2991,"la2":30.254,"lo1":-89.0895,"lo2":-89.0444,"dy":0.0017,"dx":0.0017,"nx":28,"ny":28,"refTime":"2024-05-20T09:00:00:Z","depth":0,"parameterNumber":2,"parameterNumberName":"U-component_of_WINDS"},"data":[0,0,0,0,0,0,0,0,0,0,0,0,0,0,0,0,0,0,0,0,0,0,0,0,0,0,0,0,0,0,0,0,0,0,0,0,0,0,0,0,0,0,0,0,0,0,0,0,0,0,0,0,0,0,0,0,0,0,-3.3668,-3.3669,0,-3.3725,-3.3725,-3.3726,-3.37,-3.3699,-3.3697,-3.3696,-3.3753,-3.3755,-3.3758,0,0,0,0,0,0,0,0,0,0,0,0,0,-3.3536,-3.3539,-3.3668,-3.3669,-3.3669,-3.3725,-3.3725,-3.3726,-3.37,-3.3699,-3.3697,-3.3695,-3.3752,-3.3755,-3.3758,0,0,0,0,0,0,0,0,0,0,0,0,0,-3.3593,-3.354,-3.3668,-3.3663,-3.3663,-3.3724,-3.3725,-3.3726,-3.3701,-3.3699,-3.3697,-3.3695,-3.3751,-3.3755,-3.3759,-3.3827,0,0,-3.3772,-3.3774,0,0,0,0,0,0,0,0,-3.359,-3.3598,-3.3663,-3.3664,-3.3664,-3.3703,-3.37,-3.376,-3.3701,-3.3687,-3.3696,-3.3694,-3.3738,-3.3743,-3.3758,-3.383,-3.3832,-3.3772,-3.3775,-3.3777,-3.3778,0,0,0,0,0,0,0,-3.3586,-3.3596,-3.369,-3.3664,-3.3665,-3.3658,-3.3664,-3.3711,-3.3723,-3.3688,-3.3686,-3.3693,-3.3738,-3.3754,-3.3759,-3.3833,-3.3772,-3.3776,-3.3778,-3.378,-3.3963,-3.3965,0,0,0,0,0,0,-3.3583,-3.3593,-3.3688,-3.3692,-3.3621,-3.3662,-3.3669,-3.3693,-3.3723,-3.3725,-3.3695,-3.3692,-3.3748,-3.3754,-3.3761,-3.3842,-3.3776,-3.378,-3.3783,-3.396,-3.3963,-3.3966,0,0,0,0,0,0,-3.358,-3.3591,-3.3686,-3.3642,-3.3653,-3.3667,-3.3694,-3.3695,-3.3711,-3.3728,-3.373,-3.371,-3.3747,-3.3755,-3.3811,-3.3843,-3.3782,-3.3786,-3.3958,-3.3961,-3.3964,-3.4004,0,0,0,0,0,0,-3.3576,-3.3591,-3.3617,-3.3643,-3.3656,-3.3735,-3.3696,-3.3698,-3.3719,-3.3715,-3.3742,-3.3745,-3.3746,-3.3805,-3.3815,-3.3848,-3.3789,-3.3955,-3.3959,-3.3963,-3.4,-3.4009,-3.4016,0,0,0,0,0,-3.3572,-3.3626,-3.3618,-3.363,-3.3689,-3.3737,-3.3745,-3.3745,-3.3722,-3.3748,-3.3759,-3.3744,-3.3839,-3.3811,-3.3822,-3.3857,-3.3953,-3.3958,-3.3963,-3.3997,-3.4007,-3.4016,0,0,0,0,0,0,-3.3603,-3.3629,-3.3621,-3.3685,-3.3709,-3.3733,-3.3766,-3.3756,-3.3787,-3.3782,-3.3781,-3.3787,-3.3844,-3.3857,-3.3825,-3.3924,-3.3892,-3.39,-3.3914,-3.3924,-3.3932,-3.3927,-3.3793,0,0,0,0,0,-3.3617,-3.3655,-3.3675,-3.373,-3.3743,-3.3752,-3.3773,-3.3772,-3.3796,-3.3806,-3.3821,-3.3845,-3.388,-3.3903,-3.3936,-3.4003,-3.4007,-3.4032,-3.4041,-3.4047,-3.4053,-3.4088,-3.4099,-3.3983,-3.3983,-3.3983,0,0,-3.3647,-3.3666,-3.369,-3.3737,-3.3755,-3.3793,-3.3761,-3.3803,-3.3831,-3.3812,-3.3865,-3.3877,-3.3904,-3.3965,-3.3993,-3.3977,-3.4087,-3.4054,-3.4059,-3.4061,-3.4094,-3.4105,-3.4115,-3.3986,-3.3986,-3.3985,0,0,-3.3721,-3.374,-3.3787,-3.3806,-3.3834,-3.3841,-3.3852,-3.3877,-3.3885,-3.3938,-3.3925,-3.3958,-3.4019,-3.4038,-3.4056,-3.4138,-3.4125,-3.4149,-3.419,-3.4224,-3.4233,-3.4241,-3.4269,-3.4279,-3.4156,-3.4156,-3.4156,0,-3.3754,-3.3811,-3.3812,-3.3855,-3.3875,-3.3861,-3.3908,-3.3927,-3.3965,-3.3979,-3.3962,-3.4037,-3.4055,-3.4119,-3.4139,-3.4155,-3.4167,-3.4145,-3.4232,-3.424,-3.4248,-3.4274,-3.4285,-3.4158,-3.4158,-3.4158,-3.4158,0,-3.385,-3.389,-3.3924,-3.3961,-3.3986,-3.4031,-3.4038,-3.4063,-3.406,-3.4068,-3.4122,-3.4143,-3.4179,-3.4195,-3.4192,-3.426,-3.4249,-3.4232,-3.4199,-3.4261,-3.4286,-3.4296,-3.4162,-3.4161,-3.416,-3.416,0,0,-3.3943,-3.398,-3.3993,-3.4009,-3.404,-3.4071,-3.4115,-3.4151,-3.4172,-3.42,-3.4235,-3.4288,-3.4272,-3.4293,-3.4292,-3.4322,-3.4384,-3.4301,-3.4302,-3.4314,-3.4458,-3.4469,-3.448,-3.4377,-3.4379,-3.438,-3.4455,0,-3.4017,-3.4094,-3.4097,-3.4167,-3.4203,-3.4191,-3.423,-3.4253,-3.4262,-3.4293,-3.4303,-3.434,-3.4317,-3.4329,-3.4359,-3.437,-3.4412,-3.4365,-3.4409,-3.441,-3.44,-3.4494,-3.4505,-3.4575,-3.4465,-3.4466,-3.4468,0,-3.4114,-3.4144,-3.4218,-3.4243,-3.4259,-3.4293,-3.4326,-3.4358,-3.4383,-3.4388,-3.4411,-3.4406,-3.445,-3.4418,-3.4479,-3.4446,-3.4465,-3.4473,-3.4476,-3.4478,-3.4441,-3.4496,-3.4597,-3.4607,-3.4483,-3.4482,-3.4481,0,-3.4172,-3.4231,-3.4283,-3.4298,-3.4329,-3.4353,-3.4367,-3.4391,-3.4413,-3.4442,-3.4456,-3.449,-3.4509,-3.4535,-3.4539,-3.4516,-3.46,-3.4568,-3.4603,-3.4603,-3.462,-3.4618,-3.4723,-3.4636,-3.4635,-3.4635,-3.4635,0,-3.4253,-3.4299,-3.4309,-3.4341,-3.4391,-3.4394,-3.4443,-3.4456,-3.4477,-3.451,-3.4503,-3.4534,-3.4539,-3.4571,-3.4575,-3.4624,-3.4633,-3.4637,-3.4637,-3.4636,-3.4635,-3.4646,-3.4641,-3.4638,-3.4637,-3.4637,-3.4636,0,-3.4326,-3.4335,-3.439,-3.4416,-3.4423,-3.4459,-3.448,-3.451,-3.4519,-3.4561,-3.4571,-3.4585,-3.4623,-3.463,-3.4675,-3.4677,-3.4735,-3.4731,-3.4726,-3.4725,-3.4759,-3.4755,-3.4873,-3.4888,-3.4793,-3.4794,-3.4794,0,-3.4376,-3.4411,-3.444,-3.4462,-3.4477,-3.4513,-3.4535,-3.4539,-3.4562,-3.4594,-3.462,-3.4657,-3.4687,-3.4748,-3.4761,-3.4796,-3.4791,-3.483,-3.4796,-3.4794,-3.479,-3.4787,-3.4789,-3.4836,-3.4837,-3.4838,-3.4839,0,-3.4464,-3.4467,-3.4499,-3.4533,-3.456,-3.4587,-3.4612,-3.4631,-3.4638,-3.4665,-3.4704,-3.4727,-3.4773,-3.4809,-3.4843,-3.4857,-3.4849,-3.485,-3.4859,-3.4858,-3.4853,-3.4854,-3.4742,-3.4846,-3.4845,-3.4845,-3.4844,-3.4844,-3.4525,-3.4555,-3.458,-3.4616,-3.4636,-3.466,-3.4689,-3.4702,-3.4735,-3.4772,-3.4773,-3.4815,-3.484,-3.4885,-3.4901,-3.4934,-3.4921,-3.4936,-3.4939,-3.4942,-3.4944,-3.4849,-3.494,-3.494,-3.494,-3.494,-3.494,0,-3.4611,-3.4627,-3.466,-3.4696,-3.4725,-3.4715,-3.4743,-3.4767,-3.4805,-3.4829,-3.4858,-3.4902,-3.4938,-3.4955,-3.499,-3.5013,-3.5009,-3.5021,-3.5019,-3.5022,-3.4954,-3.4941,-3.5023,-3.5023,-3.5023,-3.5023,-3.5023,-3.5023,-3.4659,-3.4708,-3.4714,-3.4773,-3.4789,-3.483,-3.4846,-3.4868,-3.4887,-3.4937,-3.4967,-3.4978,-3.4999,-3.5035,-3.5067,-3.5071,-3.5084,-3.5097,-3.5099,-3.5035,-3.5027,-3.5018,-3.5006,-3.51,-3.51,-3.5164,-3.5164,-3.5165]},{"header":{"parameterUnit":"m.s-1","parameterCategory":1,"la1":30.2991,"la2":30.254,"lo1":-89.0895,"lo2":-89.0444,"dy":0.0017,"dx":0.0017,"nx":28,"ny":28,"refTime":"2024-05-20T09:00:00:Z","depth":0,"parameterNumber":3,"parameterNumberName":"V-component_of_WINDS"},"data":[0,0,0,0,0,0,0,0,0,0,0,0,0,0,0,0,0,0,0,0,0,0,0,0,0,0,0,0,0,0,0,0,0,0,0,0,0,0,0,0,0,0,0,0,0,0,0,0,0,0,0,0,0,0,0,0,0,0,3.0041,3.0042,0,3.0123,3.0124,3.0125,3.0122,3.0121,3.012,3.0119,3.02,3.0203,3.0206,0,0,0,0,0,0,0,0,0,0,0,0,0,2.9879,2.9882,3.0041,3.0042,3.0043,3.0123,3.0124,3.0125,3.0122,3.0121,3.0119,3.0118,3.0199,3.0202,3.0206,0,0,0,0,0,0,0,0,0,0,0,0,0,2.9954,2.9883,3.0041,3.0051,3.0053,3.0123,3.0124,3.0126,3.0122,3.0121,3.0119,3.0117,3.0197,3.0202,3.0207,3.0271,0,0,3.0221,3.0224,0,0,0,0,0,0,0,0,2.995,2.996,3.0049,3.0051,3.0053,3.0111,3.0097,3.0174,3.0123,3.0096,3.0119,3.0117,3.0171,3.0178,3.0197,3.0274,3.0278,3.0222,3.0225,3.0227,3.0228,0,0,0,0,0,0,0,2.9944,2.9956,3.0073,3.005,3.0052,3.0051,3.006,3.0111,3.0142,3.0098,3.0098,3.0108,3.0172,3.0192,3.0199,3.0279,3.0222,3.0226,3.0229,3.0231,3.0414,3.0416,0,0,0,0,0,0,2.9937,2.9952,3.0071,3.0076,2.9996,3.0055,3.0065,3.0094,3.0141,3.0147,3.0109,3.0108,3.0185,3.0193,3.0202,3.0281,3.0227,3.0231,3.0234,3.0412,3.0415,3.0417,0,0,0,0,0,0,2.9934,2.9948,3.0067,3.0014,3.0029,3.006,3.0092,3.0096,3.0117,3.015,3.0155,3.0125,3.0184,3.0195,3.0254,3.0284,3.0234,3.0238,3.041,3.0413,3.0416,3.0439,0,0,0,0,0,0,2.9929,2.9947,2.9972,3.0015,3.0032,3.0119,3.0094,3.0099,3.0126,3.0124,3.0166,3.0171,3.0184,3.0247,3.0259,3.0289,3.0242,3.0408,3.0411,3.0415,3.0436,3.0442,3.0448,0,0,0,0,0,2.9924,2.9974,2.9973,2.9987,3.0064,3.0121,3.0131,3.0145,3.0128,3.0153,3.0175,3.017,3.0278,3.0253,3.0266,3.0299,3.0406,3.041,3.0415,3.0433,3.0441,3.0448,0,0,0,0,0,0,2.9932,2.998,2.9979,3.0045,3.0079,3.012,3.0152,3.0152,3.0191,3.0188,3.0202,3.0212,3.0271,3.0291,3.0262,3.0364,3.034,3.0347,3.0349,3.0357,3.0363,3.0357,3.0246,0,0,0,0,0,2.9942,2.9985,3.0024,3.0078,3.0095,3.0121,3.0146,3.0154,3.019,3.0204,3.0229,3.0263,3.0305,3.0332,3.0372,3.0438,3.0448,3.0467,3.0473,3.0478,3.0484,3.0522,3.0531,3.0432,3.0432,3.0431,0,0,2.9962,2.9994,3.002,3.0081,3.0108,3.0152,3.0133,3.018,3.0212,3.021,3.0268,3.0289,3.0327,3.039,3.042,3.0408,3.0514,3.0484,3.0488,3.0491,3.0528,3.0537,3.0545,3.0435,3.0434,3.0434,0,0,3.0022,3.005,3.0099,3.0127,3.0169,3.0186,3.0198,3.024,3.0253,3.0312,3.0312,3.035,3.0422,3.045,3.0473,3.0545,3.0542,3.0558,3.059,3.0626,3.0634,3.0641,3.0668,3.0677,3.0564,3.0564,3.0564,0,3.0042,3.0109,3.0124,3.0172,3.0199,3.0201,3.025,3.0276,3.0329,3.0347,3.0334,3.0425,3.0451,3.0522,3.054,3.0558,3.0572,3.0553,3.0632,3.0639,3.0646,3.0671,3.0681,3.0565,3.0565,3.0565,3.0565,0,3.0131,3.0177,3.0212,3.0265,3.0295,3.0344,3.0366,3.0395,3.0401,3.0419,3.0479,3.0511,3.0558,3.0575,3.058,3.0647,3.0639,3.0629,3.0605,3.0657,3.0681,3.0691,3.0568,3.0567,3.0567,3.0566,0,0,3.0198,3.026,3.0272,3.0296,3.0344,3.0379,3.0428,3.0476,3.0501,3.0537,3.0578,3.064,3.0631,3.0658,3.0666,3.0698,3.0754,3.0684,3.0686,3.0697,3.0831,3.0838,3.0849,3.0753,3.0755,3.0756,3.0828,0,3.0263,3.0351,3.0366,3.0442,3.0486,3.0489,3.0531,3.0564,3.0583,3.0622,3.0642,3.0686,3.0671,3.0687,3.0719,3.0741,3.0781,3.0736,3.0791,3.0793,3.0782,3.0862,3.087,3.0935,3.0837,3.0839,3.084,0,3.035,3.0391,3.0472,3.0515,3.0534,3.0572,3.0617,3.0654,3.0692,3.0704,3.0734,3.074,3.079,3.0764,3.0834,3.0802,3.0826,3.084,3.0843,3.0849,3.082,3.087,3.0957,3.0967,3.0854,3.0853,3.0852,0,3.0392,3.0467,3.0525,3.0546,3.0597,3.0624,3.0646,3.0683,3.0711,3.075,3.0769,3.0813,3.0837,3.0871,3.0888,3.0867,3.0957,3.0932,3.0967,3.0967,3.0986,3.0985,3.1078,3.1001,3.1,3.1,3.1,0,3.0464,3.0513,3.0545,3.0581,3.0637,3.0654,3.0709,3.073,3.0763,3.0803,3.0808,3.0845,3.0865,3.0905,3.0918,3.0975,3.0985,3.0995,3.0999,3.0996,3.0994,3.1011,3.1007,3.1003,3.1002,3.1002,3.1001,0,3.052,3.0543,3.0607,3.0651,3.0663,3.0702,3.0739,3.0774,3.0793,3.0844,3.0857,3.0886,3.0934,3.0954,3.1012,3.1021,3.1086,3.1085,3.1073,3.1074,3.1109,3.1106,3.1217,3.1233,3.1144,3.1145,3.1146,0,3.0564,3.0603,3.0651,3.0679,3.0703,3.0747,3.0776,3.0795,3.0825,3.0872,3.0901,3.0949,3.0989,3.1065,3.1091,3.1135,3.1136,3.1172,3.1143,3.1139,3.1138,3.1135,3.114,3.1177,3.1178,3.1179,3.118,0,3.0641,3.0651,3.0693,3.074,3.0775,3.0813,3.0849,3.0872,3.0896,3.0929,3.0979,3.101,3.107,3.1118,3.1165,3.1187,3.1188,3.1189,3.1199,3.1197,3.1189,3.1195,3.1089,3.1186,3.1185,3.1185,3.1185,3.1184,3.0693,3.0728,3.0768,3.0815,3.0845,3.088,3.0915,3.0939,3.0981,3.1033,3.1041,3.1094,3.1132,3.1195,3.1219,3.126,3.1251,3.1266,3.127,3.1274,3.1277,3.1182,3.1269,3.1268,3.1268,3.1268,3.1268,0,3.0771,3.0797,3.084,3.0892,3.093,3.0928,3.0969,3.1,3.1047,3.1083,3.1122,3.118,3.1227,3.1257,3.1304,3.1331,3.1333,3.1343,3.1341,3.1347,3.1282,3.1268,3.1341,3.1341,3.1341,3.1341,3.1341,3.1341,3.0815,3.0875,3.089,3.0964,3.099,3.1043,3.1067,3.1098,3.1127,3.1191,3.1231,3.1251,3.1284,3.1334,3.1377,3.1384,3.1402,3.1413,3.142,3.1359,3.1351,3.1344,3.1331,3.1416,3.1416,3.1482,3.1482,3.1483]}]]